Falfurrias, TX

2:29 AM CST on December 11, 2019 (GMT -0600)
Falfurrias

Weather History for KBKS - October, 2019

Change the Weather History Date:

Wednesday, October 16, 2019

  Actual Average (KNQI) Record (KNQI)
Temperature  
Mean Temperature 78 °F -  
Max Temperature 87 °F 81 °F 93 °F (2006)
Min Temperature 68 °F 62 °F 50 °F (2001)
Cooling Degree Days 12    
Growing Degree Days 28 (Base 50)    
Moisture  
Dew Point 63 °F    
Average Humidity 66    
Maximum Humidity 91    
Minimum Humidity 41    
Precipitation  
Precipitation 0.00 in - - ()
Sea Level Pressure  
Sea Level Pressure 29.99 in    
Wind  
Wind Speed 8 mph ()    
Max Wind Speed 18 mph    
Max Gust Speed 25 mph    
Visibility 10.0 miles    
Events      
Averages and records for this station are not official NWS values.
T = Trace of Precipitation, MM = Missing Value Source: Averaged Metar Reports

Daily Weather History Graph

Daily Weather History Graph

Search for Another Location

Airport or City:

Astronomy

Oct. 16, 2019 Rise Set
Actual Time 7:32 AM CDT 7:02 PM CDT
Civil Twilight 7:09 AM CDT 7:26 PM CDT
Nautical Twilight 6:42 AM CDT 7:53 PM CDT
Astronomical Twilight 6:15 AM CDT 8:20 PM CDT
Moon 9:09 PM CDT (10/16) 9:54 AM CDT (10/16)
Length of Visible Light 12h 17m
Length of Day
11h 30m
Waning Gibbous, 92% of the Moon is Illuminated
Oct 16
Waning Gibbous
Oct 21
Last Quarter
Oct 27
New
Nov 4
First Quarter
Nov 12
Full

Hourly Weather History & Observations

Time (CDT) Temp. Heat Index Dew Point Humidity Pressure Visibility Wind Dir Wind Speed Gust Speed Precip Events Conditions
12:15 AM 78.8 °F - 73.4 °F 83% 29.91 in 10.0 mi SE 5.8 mph - N/A   Clear
12:35 AM 78.3 °F - 73.4 °F 85% 29.90 in 10.0 mi SE 4.6 mph - N/A   Clear
12:55 AM 77.9 °F - 73.4 °F 86% 29.89 in 10.0 mi SSE 5.8 mph - N/A   Clear
1:15 AM 77.9 °F - 73.4 °F 86% 29.89 in 10.0 mi SSE 5.8 mph - N/A   Clear
1:35 AM 77.5 °F - 73.4 °F 87% 29.89 in 10.0 mi SSE 4.6 mph - N/A   Clear
1:55 AM 77.2 °F - 73.4 °F 88% 29.89 in 10.0 mi South 3.5 mph - N/A   Clear
2:15 AM 76.6 °F - 73.0 °F 89% 29.89 in 10.0 mi South 3.5 mph - N/A   Clear
2:35 AM 76.1 °F - 72.5 °F 89% 29.88 in 10.0 mi South 3.5 mph - N/A   Clear
2:55 AM 75.6 °F - 72.1 °F 89% 29.86 in 10.0 mi South 4.6 mph - N/A   Clear
3:15 AM 75.2 °F - 72.0 °F 90% 29.85 in 10.0 mi South 4.6 mph - N/A   Clear
3:35 AM 75.4 °F - 72.0 °F 89% 29.86 in 10.0 mi Calm Calm - N/A   Clear
3:55 AM 75.2 °F - 71.6 °F 89% 29.87 in 10.0 mi WNW 3.5 mph - N/A   Clear
4:15 AM 74.1 °F - 70.9 °F 90% 29.87 in 10.0 mi NW 3.5 mph - N/A   Clear
4:35 AM 74.5 °F - 71.2 °F 90% 29.87 in 10.0 mi Calm Calm - N/A   Clear
4:55 AM 74.3 °F - 71.1 °F 90% 29.88 in 10.0 mi Calm Calm - N/A   Clear
5:15 AM 74.1 °F - 71.1 °F 90% 29.88 in 10.0 mi NNW 3.5 mph - N/A   Clear
5:35 AM 73.6 °F - 70.7 °F 91% 29.90 in 10.0 mi North 3.5 mph - N/A   Clear
5:55 AM 73.6 °F - 70.9 °F 91% 29.91 in 10.0 mi North 3.5 mph - N/A   Clear
6:15 AM 73.8 °F - 71.1 °F 91% 29.92 in 10.0 mi Calm Calm - N/A   Clear
6:35 AM 73.8 °F - 71.1 °F 91% 29.93 in 10.0 mi NNW 6.9 mph - N/A   Scattered Clouds
6:55 AM 75.4 °F - 72.5 °F 91% 29.95 in 10.0 mi NNW 10.4 mph 17.3 mph N/A   Mostly Cloudy
7:15 AM 76.6 °F - 72.7 °F 87% 29.96 in 10.0 mi NNW 6.9 mph - N/A   Overcast
7:35 AM 76.5 °F - 69.3 °F 78% 29.96 in 10.0 mi North 15.0 mph 21.9 mph N/A   Mostly Cloudy
7:55 AM 76.3 °F - 67.1 °F 73% 29.97 in 10.0 mi North 13.8 mph 21.9 mph N/A   Scattered Clouds
8:15 AM 76.1 °F - 66.7 °F 73% 29.98 in 10.0 mi NNE 9.2 mph 17.3 mph N/A   Overcast
8:35 AM 75.6 °F - 67.1 °F 75% 29.98 in 10.0 mi NNE 8.1 mph - N/A   Mostly Cloudy
8:55 AM 76.6 °F - 66.9 °F 72% 29.99 in 10.0 mi North 8.1 mph - N/A   Scattered Clouds
9:15 AM 78.6 °F - 66.4 °F 66% 29.99 in 10.0 mi NNE 9.2 mph - N/A   Clear
9:35 AM 79.9 °F - 65.3 °F 61% 29.99 in 10.0 mi NNE 10.4 mph - N/A   Clear
9:55 AM 81.5 °F 83.3 °F 64.9 °F 57% 29.99 in 10.0 mi NNE 9.2 mph - N/A   Clear
10:15 AM 83.5 °F 85.1 °F 64.6 °F 53% 29.99 in 10.0 mi NNE 10.4 mph - N/A   Clear
10:35 AM 84.7 °F 86.3 °F 64.6 °F 51% 30.00 in 10.0 mi NNE 13.8 mph 18.4 mph N/A   Clear
10:55 AM 86.0 °F 87.9 °F 65.7 °F 50% 30.01 in 10.0 mi NNE 11.5 mph 18.4 mph N/A   Clear
11:15 AM 87.3 °F 90.2 °F 67.1 °F 51% 30.01 in 10.0 mi North 18.4 mph 25.3 mph N/A   Clear
11:35 AM 86.2 °F 89.4 °F 67.6 °F 54% 30.03 in 10.0 mi North 16.1 mph 24.2 mph N/A   Clear
11:55 AM 85.3 °F 89.4 °F 69.3 °F 59% 30.04 in 10.0 mi North 12.7 mph 25.3 mph N/A   Scattered Clouds
12:15 PM 83.5 °F 86.9 °F 68.9 °F 61% 30.05 in 10.0 mi NNW 15.0 mph 25.3 mph N/A   Mostly Cloudy
12:35 PM 80.2 °F 83.1 °F 68.7 °F 68% 30.06 in 10.0 mi NNW 13.8 mph 25.3 mph N/A   Overcast
12:55 PM 79.3 °F - 68.7 °F 70% 30.06 in 10.0 mi North 15.0 mph 18.4 mph N/A   Overcast
1:15 PM 78.3 °F - 68.2 °F 71% 30.06 in 10.0 mi North 15.0 mph 21.9 mph N/A   Overcast
1:35 PM 77.9 °F - 66.2 °F 67% 30.06 in 10.0 mi NNW 15.0 mph 20.7 mph N/A   Overcast
1:55 PM 77.5 °F - 63.9 °F 63% 30.06 in 10.0 mi NNW 12.7 mph 23.0 mph N/A   Overcast
2:15 PM 77.9 °F - 63.7 °F 61% 30.05 in 10.0 mi NNW 15.0 mph 19.6 mph N/A   Overcast
2:35 PM 79.0 °F - 62.4 °F 57% 30.03 in 10.0 mi NNW 16.1 mph 24.2 mph N/A   Scattered Clouds
2:55 PM 78.4 °F - 61.7 °F 56% 30.03 in 10.0 mi North 13.8 mph 21.9 mph N/A   Scattered Clouds
3:15 PM 78.8 °F - 60.6 °F 54% 30.02 in 10.0 mi North 12.7 mph 20.7 mph N/A   Scattered Clouds
3:35 PM 78.4 °F - 60.6 °F 54% 30.01 in 10.0 mi North 13.8 mph 20.7 mph N/A   Clear
3:55 PM 78.8 °F - 60.8 °F 54% 29.99 in 10.0 mi NNE 11.5 mph 17.3 mph N/A   Clear
4:15 PM 79.7 °F - 61.5 °F 54% 29.99 in 10.0 mi North 15.0 mph 20.7 mph N/A   Clear
4:35 PM 79.5 °F - 59.9 °F 51% 29.99 in 10.0 mi North 13.8 mph 19.6 mph N/A   Clear
4:55 PM 79.2 °F - 59.0 °F 50% 29.97 in 10.0 mi North 13.8 mph 19.6 mph N/A   Clear
5:15 PM 78.1 °F - 59.2 °F 52% 29.97 in 10.0 mi North 10.4 mph 17.3 mph N/A   Clear
5:35 PM 78.1 °F - 59.2 °F 52% 29.97 in 10.0 mi North 13.8 mph 17.3 mph N/A   Clear
5:55 PM 76.8 °F - 58.6 °F 53% 29.98 in 10.0 mi North 12.7 mph 18.4 mph N/A   Clear
6:15 PM 74.7 °F - 56.8 °F 54% 29.99 in 10.0 mi NNW 17.3 mph 23.0 mph N/A   Scattered Clouds
6:35 PM 71.1 °F - 55.0 °F 57% 30.00 in 10.0 mi North 13.8 mph 24.2 mph N/A   Mostly Cloudy
6:55 PM 70.2 °F - 55.2 °F 59% 30.02 in 10.0 mi NNW 12.7 mph 18.4 mph N/A   Overcast
7:15 PM 69.3 °F - 54.5 °F 59% 30.02 in 10.0 mi NNW 12.7 mph - N/A   Overcast
7:35 PM 68.9 °F - 54.3 °F 60% 30.03 in 10.0 mi North 10.4 mph - N/A   Overcast
7:55 PM 68.9 °F - 54.0 °F 59% 30.04 in 10.0 mi North 8.1 mph - N/A   Overcast
8:15 PM 69.1 °F - 52.7 °F 56% 30.05 in 10.0 mi North 9.2 mph - N/A   Overcast
8:35 PM 69.1 °F - 50.9 °F 52% 30.06 in 10.0 mi NNW 9.2 mph - N/A   Overcast
8:55 PM 69.3 °F - 48.7 °F 48% 30.07 in 10.0 mi NNW 9.2 mph - N/A   Overcast
9:15 PM 69.3 °F - 48.0 °F 47% 30.07 in 10.0 mi NNW 11.5 mph - N/A   Overcast
9:35 PM 68.9 °F - 46.6 °F 45% 30.07 in 10.0 mi North 12.7 mph 17.3 mph N/A   Overcast
9:55 PM 69.1 °F - 46.4 °F 44% 30.08 in 10.0 mi North 8.1 mph - N/A   Overcast
10:15 PM 69.3 °F - 45.5 °F 42% 30.08 in 10.0 mi North 13.8 mph 18.4 mph N/A   Overcast
10:35 PM 69.6 °F - 45.0 °F 41% 30.09 in 10.0 mi North 10.4 mph 16.1 mph N/A   Overcast
10:55 PM 69.8 °F - 45.5 °F 42% 30.10 in 10.0 mi North 8.1 mph 16.1 mph N/A   Overcast
11:15 PM 69.6 °F - 45.9 °F 43% 30.09 in 10.0 mi North 9.2 mph - N/A   Overcast
11:35 PM 69.3 °F - 46.6 °F 44% 30.09 in 10.0 mi North 8.1 mph - N/A   Overcast
11:55 PM 68.0 °F - 49.8 °F 52% 30.09 in 10.0 mi NNE 11.5 mph 18.4 mph N/A   Overcast